Voltar ao catálogo

YAOGAN 8

AtivoMilitarSSO
NORAD 36121·PAYLOAD·🇨🇳 China

Lançado Dec 15, 2009 de Taiyuan Satellite Launch Center

Loading…

Próximas Passagens (próximas 24 horas)

TLE

AtualizadoSource: Space-Track

Época: Sep 14, 2026, 15:38 UTC

1 36121U 09072A   26257.65161313  .00000284  00000-0  10056-2 0  9997
2 36121 100.2004 137.3714 0021519 121.1974 239.1246 13.05085659800345

Acompanhe YAOGAN 8 em tempo real com AllMySat

Download on the App Store